Change the Weather History Date:

Thursday, September 13, 2012

  Actual Average Record
Temperature  
Mean Temperature 67 °F 70 °F  
Max Temperature 79 °F 79 °F 89 °F (1972)
Min Temperature 55 °F 63 °F 48 °F (1985)
Degree Days  
Heating Degree Days 0    
Month to date heating degree days 1  
Since 1 July heating degree days 1  
Cooling Degree Days 2    
Month to date cooling degree days 118  
Year to date cooling degree days 1481  
Growing Degree Days 17 (Base 50)    
Moisture  
Dew Point 58 °F    
Average Humidity 70    
Maximum Humidity 86    
Minimum Humidity 54    
Precipitation  
Precipitation 0.00 in 0.15 in 0.07 in (2006)
Month to date precipitation 4.87 1.73  
Year to date precipitation 33.33 29.12  
Sea Level Pressure  
Sea Level Pressure 30.33 in    
Wind  
Wind Speed 5 mph (ENE)    
Max Wind Speed 12 mph    
Max Gust Speed 15 mph    
Visibility 10 miles    
Events      
T = Trace of Precipitation, MM = Missing Value Source: NWS Daily Summary

Daily Weather History Graph

Daily Weather History Graph

Search for Another Location

Airport or City:

Trip Planner

Search our weather history database for the weather conditions in past years. The results will help you decide how hot, cold, wet, or windy it might be!

Date:

Astronomy

Sep. 13, 2012 Rise Set
Actual Time 6:42 AM EDT 7:12 PM EDT
Civil Twilight 6:15 AM EDT 7:38 PM EDT
Nautical Twilight 5:44 AM EDT 8:09 PM EDT
Astronomical Twilight 5:12 AM EDT 8:41 PM EDT
Moon 4:01 AM EDT (9/13) 5:32 PM EDT (9/13)
Length of Visible Light 13h 22m
Length of Day
12h 29m
Waning Crescent, 7% of the Moon is Illuminated
Sep 13
Waning Crescent
Sep 15
New
Sep 22
First Quarter
Sep 29
Full
Oct 8
Last Quarter

Hourly Weather History & Observations

Time (EDT) Temp. Dew Point Humidity Pressure Visibility Wind Dir Wind Speed Gust Speed Precip Events Conditions
12:54 AM 57.9 °F 52.0 °F 81% 30.35 in 10.0 mi NW 3.5 mph - N/A   Clear
1:54 AM 57.0 °F 52.0 °F 83% 30.35 in 10.0 mi North 3.5 mph - N/A   Clear
2:54 AM 59.0 °F 53.1 °F 81% 30.34 in 10.0 mi North 4.6 mph - N/A   Clear
3:54 AM 55.9 °F 51.1 °F 84% 30.34 in 10.0 mi NNW 3.5 mph - N/A   Clear
4:54 AM 55.9 °F 51.1 °F 84% 30.33 in 10.0 mi NNW 3.5 mph - N/A   Clear
5:54 AM 55.9 °F 51.1 °F 84% 30.34 in 10.0 mi NNW 5.8 mph - N/A   Clear
6:54 AM 57.0 °F 51.1 °F 81% 30.35 in 10.0 mi North 4.6 mph - N/A   Clear
7:54 AM 62.1 °F 55.0 °F 78% 30.36 in 10.0 mi North 5.8 mph - N/A   Clear
8:54 AM 66.9 °F 57.0 °F 70% 30.37 in 10.0 mi North 5.8 mph - N/A   Clear
9:54 AM 73.9 °F 61.0 °F 64% 30.37 in 10.0 mi NE 8.1 mph - N/A   Partly Cloudy
10:54 AM 75.0 °F 61.0 °F 62% 30.38 in 10.0 mi East 9.2 mph - N/A   Clear
11:54 AM 77.0 °F 61.0 °F 58% 30.37 in 10.0 mi ENE 9.2 mph - N/A   Clear
12:54 PM 78.1 °F 62.1 °F 58% 30.36 in 10.0 mi East 9.2 mph - N/A   Clear
1:54 PM 78.1 °F 61.0 °F 56% 30.34 in 10.0 mi East 9.2 mph - N/A   Scattered Clouds
2:36 PM 77.0 °F 61.0 °F 58% 30.33 in 10.0 mi Variable 6.9 mph - N/A   Mostly Cloudy
2:54 PM 75.9 °F 60.1 °F 58% 30.32 in 10.0 mi Variable 4.6 mph - N/A   Overcast
3:05 PM 75.9 °F 60.1 °F 58% 30.32 in 10.0 mi SE 6.9 mph - N/A   Mostly Cloudy
3:54 PM 75.9 °F 60.1 °F 58% 30.31 in 10.0 mi ESE 8.1 mph - N/A   Mostly Cloudy
4:54 PM 77.0 °F 61.0 °F 58% 30.30 in 10.0 mi SSE 6.9 mph - N/A   Partly Cloudy
5:54 PM 75.0 °F 61.0 °F 62% 30.29 in 10.0 mi SE 6.9 mph - N/A   Clear
6:54 PM 73.0 °F 61.0 °F 66% 30.29 in 10.0 mi SSE 5.8 mph - N/A   Clear
7:54 PM 71.1 °F 61.0 °F 70% 30.29 in 10.0 mi ESE 3.5 mph - N/A   Clear
8:54 PM 70.0 °F 61.0 °F 73% 30.30 in 10.0 mi ESE 3.5 mph - N/A   Clear
9:54 PM 70.0 °F 61.0 °F 73% 30.29 in 10.0 mi ESE 3.5 mph - N/A   Clear
10:54 PM 68.0 °F 59.0 °F 73% 30.29 in 10.0 mi Calm Calm - N/A   Clear
11:54 PM 64.9 °F 59.0 °F 81% 30.29 in 10.0 mi Calm Calm - N/A   Clear